TimePST,TemperatureF,Dew PointF,Humidity,Sea Level PressureIn,VisibilityMPH,Wind Direction,Wind SpeedMPH,Gust SpeedMPH,PrecipitationIn,Events,Conditions,WindDirDegrees,DateUTC
12:15 AM,31.3,21.9,68,30.06,10.0,ESE,8.1,-,N/A,,Overcast,120,2014-01-29 08:15:00
12:35 AM,31.8,21.0,64,30.04,10.0,ESE,5.8,-,N/A,,Overcast,120,2014-01-29 08:35:00
12:55 AM,32.0,21.6,65,30.03,10.0,Calm,Calm,-,N/A,,Overcast,0,2014-01-29 08:55:00
1:15 AM,31.6,22.5,69,30.02,10.0,ENE,4.6,-,N/A,,Overcast,60,2014-01-29 09:15:00
1:35 AM,31.1,23.0,72,30.02,4.0,ENE,6.9,-,N/A,,Overcast,60,2014-01-29 09:35:00
1:55 AM,28.9,24.6,84,30.00,1.5,East,5.8,-,N/A,,Overcast,80,2014-01-29 09:55:00
2:15 AM,28.2,25.7,90,30.00,1.8,Calm,Calm,-,0.01,,Overcast,0,2014-01-29 10:15:00
2:35 AM,28.8,26.4,91,29.98,2.0,East,3.5,-,0.01,,Overcast,90,2014-01-29 10:35:00
2:55 AM,28.9,26.6,91,29.96,5.0,East,4.6,-,0.01,,Overcast,90,2014-01-29 10:55:00
3:15 AM,29.1,26.8,91,29.94,5.0,East,3.5,-,0.01,,Overcast,90,2014-01-29 11:15:00
3:35 AM,29.5,27.5,92,29.92,3.0,East,4.6,-,0.03,,Overcast,90,2014-01-29 11:35:00
3:55 AM,30.4,28.4,92,29.91,7.0,ENE,5.8,-,0.05,,Overcast,60,2014-01-29 11:55:00
4:15 AM,30.7,28.9,93,29.89,5.0,NE,5.8,-,0.01,,Overcast,50,2014-01-29 12:15:00
4:35 AM,30.6,28.9,94,29.87,4.0,ENE,4.6,-,0.03,,Overcast,60,2014-01-29 12:35:00
4:55 AM,31.1,29.3,93,29.85,7.0,NNE,12.7,-,0.04,,Overcast,30,2014-01-29 12:55:00
5:15 AM,31.1,29.7,94,29.83,2.0,NE,13.8,-,N/A,,Overcast,40,2014-01-29 13:15:00
5:35 AM,31.1,29.7,94,29.81,7.0,NE,10.4,18.4,N/A,,Overcast,40,2014-01-29 13:35:00
5:55 AM,31.8,30.4,94,29.80,10.0,NNE,10.4,18.4,N/A,,Overcast,30,2014-01-29 13:55:00
6:15 AM,32.7,31.1,94,29.80,10.0,East,6.9,-,N/A,,Overcast,100,2014-01-29 14:15:00
6:35 AM,32.9,30.9,92,29.79,10.0,ESE,8.1,-,N/A,,Overcast,120,2014-01-29 14:35:00
6:55 AM,35.8,32.0,86,29.79,10.0,SSE,12.7,26.5,N/A,,Overcast,160,2014-01-29 14:55:00
7:15 AM,34.7,31.1,87,29.77,10.0,ESE,5.8,16.1,N/A,,Overcast,120,2014-01-29 15:15:00
7:35 AM,32.5,30.7,93,29.77,5.0,SE,10.4,-,0.01,,Overcast,130,2014-01-29 15:35:00
7:55 AM,32.5,31.1,94,29.77,7.0,SSE,6.9,-,0.01,,Overcast,150,2014-01-29 15:55:00
8:15 AM,35.6,32.2,87,29.77,7.0,SSW,24.2,31.1,N/A,,Overcast,200,2014-01-29 16:15:00
8:35 AM,38.8,32.4,78,29.77,7.0,SSW,23.0,29.9,N/A,,Overcast,200,2014-01-29 16:35:00
8:55 AM,38.8,32.9,79,29.78,7.0,SW,17.3,25.3,N/A,,Overcast,220,2014-01-29 16:55:00
9:15 AM,39.2,33.3,79,29.77,7.0,SW,18.4,27.6,0.01,,Overcast,230,2014-01-29 17:15:00
9:35 AM,39.2,33.4,80,29.77,7.0,SW,25.3,32.2,0.01,,Overcast,220,2014-01-29 17:35:00
9:55 AM,38.8,33.1,80,29.79,7.0,SW,27.6,35.7,0.01,,Overcast,230,2014-01-29 17:55:00
10:15 AM,38.7,33.1,80,29.80,7.0,WSW,24.2,39.1,N/A,,Overcast,240,2014-01-29 18:15:00
10:35 AM,38.7,33.3,81,29.79,7.0,SW,24.2,39.1,N/A,,Overcast,230,2014-01-29 18:35:00
10:55 AM,39.2,33.3,79,29.78,10.0,SW,27.6,39.1,N/A,,Overcast,230,2014-01-29 18:55:00
11:15 AM,39.9,32.9,76,29.77,10.0,SW,23.0,35.7,N/A,,Overcast,230,2014-01-29 19:15:00
11:35 AM,40.5,32.5,73,29.76,10.0,SW,28.8,39.1,N/A,,Overcast,220,2014-01-29 19:35:00
11:55 AM,40.5,32.7,74,29.75,10.0,SW,25.3,44.9,N/A,,Overcast,220,2014-01-29 19:55:00
12:15 PM,40.6,32.9,74,29.75,10.0,SW,24.2,41.4,N/A,,Overcast,230,2014-01-29 20:15:00
12:35 PM,40.6,32.7,73,29.73,10.0,SW,27.6,36.8,N/A,,Overcast,220,2014-01-29 20:35:00
12:55 PM,40.8,32.2,71,29.73,10.0,SW,25.3,36.8,N/A,,Mostly Cloudy,220,2014-01-29 20:55:00
1:15 PM,40.5,32.0,72,29.72,10.0,SW,19.6,33.4,N/A,,Scattered Clouds,230,2014-01-29 21:15:00
1:35 PM,40.8,32.0,71,29.71,10.0,SW,19.6,28.8,N/A,,Scattered Clouds,230,2014-01-29 21:35:00
1:55 PM,40.8,31.8,70,29.70,10.0,SW,20.7,25.3,N/A,,Clear,220,2014-01-29 21:55:00
2:15 PM,41.0,31.6,69,29.68,10.0,SW,20.7,27.6,N/A,,Clear,230,2014-01-29 22:15:00
2:35 PM,41.5,31.5,67,29.68,10.0,WSW,15.0,27.6,N/A,,Clear,240,2014-01-29 22:35:00
2:55 PM,40.8,31.8,70,29.71,10.0,West,9.2,21.9,N/A,,Clear,260,2014-01-29 22:55:00
3:15 PM,37.9,32.0,79,29.72,10.0,West,4.6,-,N/A,,Clear,270,2014-01-29 23:15:00
3:35 PM,39.7,31.8,73,29.70,10.0,SW,12.7,19.6,N/A,,Clear,220,2014-01-29 23:35:00
3:55 PM,41.2,31.6,69,29.71,10.0,WSW,10.4,16.1,N/A,,Scattered Clouds,240,2014-01-29 23:55:00
4:15 PM,40.6,30.9,68,29.70,10.0,SW,13.8,-,N/A,,Scattered Clouds,220,2014-01-30 00:15:00
4:35 PM,40.1,29.3,65,29.68,10.0,SSW,11.5,16.1,N/A,,Scattered Clouds,210,2014-01-30 00:35:00
4:55 PM,39.7,29.1,66,29.67,10.0,SW,6.9,16.1,N/A,,Mostly Cloudy,230,2014-01-30 00:55:00
5:15 PM,39.0,29.8,70,29.66,10.0,West,4.6,16.1,N/A,,Overcast,260,2014-01-30 01:15:00
5:35 PM,37.9,30.6,75,29.66,10.0,WSW,8.1,-,N/A,,Overcast,250,2014-01-30 01:35:00
5:55 PM,37.8,30.7,76,29.66,10.0,West,9.2,16.1,N/A,,Overcast,260,2014-01-30 01:55:00
6:15 PM,37.4,30.7,77,29.66,10.0,SW,17.3,24.2,N/A,,Overcast,230,2014-01-30 02:15:00
6:35 PM,37.4,31.1,78,29.66,10.0,SW,20.7,26.5,N/A,,Overcast,220,2014-01-30 02:35:00
6:55 PM,37.0,31.8,81,29.65,10.0,WSW,11.5,24.2,N/A,,Overcast,240,2014-01-30 02:55:00
7:15 PM,37.8,32.0,80,29.64,10.0,SW,21.9,27.6,N/A,,Overcast,220,2014-01-30 03:15:00
7:35 PM,38.8,32.0,76,29.63,10.0,SW,23.0,29.9,N/A,,Overcast,220,2014-01-30 03:35:00
7:55 PM,38.5,32.0,78,29.64,7.0,SW,21.9,27.6,N/A,,Overcast,220,2014-01-30 03:55:00
8:15 PM,38.5,32.5,79,29.65,7.0,SW,25.3,34.5,0.01,,Overcast,230,2014-01-30 04:15:00
8:35 PM,37.8,32.5,81,29.64,10.0,SW,19.6,29.9,0.01,,Overcast,230,2014-01-30 04:35:00
8:55 PM,38.1,32.0,79,29.65,10.0,SW,24.2,31.1,0.01,,Overcast,220,2014-01-30 04:55:00
9:15 PM,38.5,32.0,78,29.64,10.0,SW,21.9,29.9,N/A,,Overcast,220,2014-01-30 05:15:00
9:35 PM,38.7,31.8,76,29.65,10.0,SW,23.0,31.1,N/A,,Overcast,220,2014-01-30 05:35:00
9:55 PM,38.5,32.0,78,29.65,10.0,SW,25.3,33.4,N/A,,Overcast,230,2014-01-30 05:55:00
10:15 PM,37.9,32.0,79,29.65,10.0,SW,23.0,-,N/A,,Overcast,220,2014-01-30 06:15:00
10:35 PM,37.8,32.0,80,29.66,10.0,SW,21.9,-,N/A,,Overcast,230,2014-01-30 06:35:00
10:55 PM,38.1,31.8,78,29.67,10.0,SW,21.9,-,N/A,,Overcast,230,2014-01-30 06:55:00
11:15 PM,38.1,31.8,78,29.68,10.0,SW,20.7,27.6,N/A,,Overcast,230,2014-01-30 07:15:00
11:35 PM,37.4,32.0,81,29.68,10.0,SW,21.9,28.8,N/A,,Overcast,230,2014-01-30 07:35:00
11:55 PM,37.4,32.0,81,29.68,10.0,SW,20.7,27.6,N/A,,Overcast,230,2014-01-30 07:55:00